Weather History for Van Nuys, CA

Change the Weather History Date:

Tuesday, March 19, 2013

  Actual Average Record
Temperature  
Mean Temperature 64 °F -  
Max Temperature 75 °F 70 °F 93 °F (1997)
Min Temperature 53 °F 48 °F 37 °F (2006)
Degree Days  
Heating Degree Days 1    
Growing Degree Days 14 (Base 50)    
Moisture  
Dew Point 48 °F    
Average Humidity 61    
Maximum Humidity 77    
Minimum Humidity 41    
Precipitation  
Precipitation 0.00 in - - ()
Sea Level Pressure  
Sea Level Pressure 30.06 in    
Wind  
Wind Speed 2 mph (SE)    
Max Wind Speed 9 mph    
Max Gust Speed -    
Visibility 6 miles    
Events      
Averages and records for this station are not official NWS values.
T = Trace of Precipitation, MM = Missing Value Source: NWS Daily Summary

Daily Weather History Graph

Daily Weather History Graph

Search for Another Location

Airport:

Trip Planner

Search our weather history database for the weather conditions in past years. The results will help you decide how hot, cold, wet, or windy it might be!

Date:

Astronomy

Mar. 19, 2013 Rise Set
Actual Time 6:58 AM PDT 7:05 PM PDT
Civil Twilight 6:33 AM PDT 7:30 PM PDT
Nautical Twilight 6:04 AM PDT 7:59 PM PDT
Astronomical Twilight 5:34 AM PDT 8:28 PM PDT
Moon 12:07 PM PDT 1:41 AM PDT
Length of Visible Light 12h 56m
Length of Day
12h 06m
Waxing Crescent, 51% of the Moon is Illuminated
Mar 19
Waxing Crescent
Mar 27
Full
Apr 2
Last Quarter
Apr 10
New
Apr 18
First Quarter

Hourly Weather History & Observations

Time (PDT) Temp. Dew Point Humidity Pressure Visibility Wind Dir Wind Speed Gust Speed Precip Events Conditions
12:51 AM 57.0 °F 46.9 °F 69% 30.04 in 8.0 mi Calm Calm - N/A   Clear
1:51 AM 55.9 °F 46.9 °F 72% 30.03 in 8.0 mi Calm Calm - N/A   Clear
2:51 AM 55.9 °F 46.9 °F 72% 30.05 in 6.0 mi West 3.5 mph - N/A   Haze
3:51 AM 55.0 °F 46.0 °F 72% 30.03 in 6.0 mi Calm Calm - N/A   Haze
4:51 AM 54.0 °F 46.0 °F 75% 30.03 in 6.0 mi Calm Calm - N/A   Haze
5:51 AM 54.0 °F 46.0 °F 75% 30.04 in 6.0 mi Calm Calm - N/A   Haze
6:51 AM 53.1 °F 45.0 °F 74% 30.06 in 6.0 mi Calm Calm - N/A   Haze
7:51 AM 54.0 °F 46.0 °F 75% 30.08 in 5.0 mi Calm Calm - N/A   Haze
8:01 AM 53.6 °F 46.4 °F 77% 30.09 in 5.0 mi Calm Calm - N/A   Haze
8:51 AM 55.9 °F 48.0 °F 75% 30.10 in 2.5 mi Calm Calm - N/A   Haze
9:51 AM 59.0 °F 48.9 °F 69% 30.09 in 3.0 mi Calm Calm - N/A   Haze
9:58 AM 60.8 °F 48.2 °F 63% 30.10 in 3.0 mi Calm Calm - N/A   Haze
10:51 AM 64.0 °F 48.0 °F 56% 30.08 in 4.0 mi Variable 3.5 mph - N/A   Haze
10:58 AM 64.4 °F 48.2 °F 56% 30.09 in 4.0 mi Calm Calm - N/A   Haze
11:51 AM 69.1 °F 46.9 °F 45% 30.06 in 5.0 mi Calm Calm - N/A   Haze
12:51 PM 73.0 °F 48.0 °F 41% 30.05 in 6.0 mi Variable 3.5 mph - N/A   Haze
1:36 PM 75.2 °F 50.0 °F 41% 30.04 in 2.0 mi Variable 5.8 mph - N/A   Haze
1:46 PM 75.2 °F 50.0 °F 41% 30.04 in 8.0 mi SE 9.2 mph - N/A   Clear
1:51 PM 75.0 °F 50.0 °F 41% 30.02 in 8.0 mi SSE 8.1 mph - N/A   Clear
2:51 PM 73.0 °F 51.1 °F 46% 30.01 in 8.0 mi SE 9.2 mph - N/A   Clear
3:51 PM 72.0 °F 50.0 °F 46% 30.01 in 9.0 mi Variable 6.9 mph - N/A   Clear
4:51 PM 72.0 °F 50.0 °F 46% 30.01 in 9.0 mi ESE 6.9 mph - N/A   Clear
5:51 PM 69.1 °F 50.0 °F 51% 30.02 in 10.0 mi SSE 8.1 mph - N/A   Clear
6:51 PM 64.0 °F 48.9 °F 58% 30.04 in 10.0 mi SE 6.9 mph - N/A   Clear
7:51 PM 61.0 °F 48.9 °F 64% 30.06 in 10.0 mi SE 6.9 mph - N/A   Clear
8:51 PM 59.0 °F 48.9 °F 69% 30.07 in 8.0 mi ESE 4.6 mph - N/A   Clear
9:51 PM 59.0 °F 48.9 °F 69% 30.10 in 7.0 mi Calm Calm - N/A   Clear
10:51 PM 60.1 °F 50.0 °F 69% 30.09 in 7.0 mi Calm Calm - N/A   Clear
11:51 PM 60.1 °F 48.9 °F 67% 30.08 in 7.0 mi NE 4.6 mph - N/A   Clear